This is the latest recevied weather packets stored in our database for station/object KK4WXG. If no packets are shown the sender has not sent any weather packets the latest 10 day(s).
| Time | Temp. | Humidity | Pressure | Rain* | Wind** | Luminosity | Snow |
|---|---|---|---|---|---|---|---|
| 1777516893 | 14.44° C | 98% | 1007.1 hPa | 0 mm | - | 0 W/m² | - |
| 1777516590 | 13.89° C | 98% | 1007 hPa | 0 mm | - | 0 W/m² | - |
| 1777516285 | 13.89° C | 98% | 1007.1 hPa | 0 mm | - | 0 W/m² | - |
| 1777515981 | 13.89° C | 98% | 1007.1 hPa | 0 mm | - | 0 W/m² | - |
| 1777515678 | 14.44° C | 98% | 1007.2 hPa | 0 mm | - | 0 W/m² | - |
| 1777515375 | 14.44° C | 98% | 1007.2 hPa | 0 mm | - | 0 W/m² | - |
| 1777515071 | 14.44° C | 98% | 1007.1 hPa | 0 mm | - | 0 W/m² | - |
| 1777514768 | 14.44° C | 98% | 1007 hPa | 0 mm | - | 0 W/m² | - |
| 1777514465 | 13.89° C | 97% | 1007.2 hPa | 0 mm | - | 0 W/m² | - |
| 1777514161 | 14.44° C | 98% | 1007.1 hPa | 0 mm | - | 0 W/m² | - |
| 1777513859 | 14.44° C | 97% | 1007.1 hPa | 0 mm | - | 0 W/m² | - |
| 1777513556 | 14.44° C | 97% | 1006.9 hPa | 0 mm | - | 0 W/m² | - |
| 1777513253 | 14.44° C | 97% | 1007 hPa | 0.51 mm | - | 0 W/m² | - |
| 1777512948 | 14.44° C | 97% | 1006.6 hPa | 0.51 mm | - | 0 W/m² | - |
| 1777512645 | 14.44° C | 97% | 1006.6 hPa | 0 mm | - | 0 W/m² | - |
| 1777512342 | 14.44° C | 97% | 1007.2 hPa | 1.78 mm | - | 0 W/m² | - |
| 1777512039 | 14.44° C | 97% | 1007.3 hPa | 13.72 mm | - | 0 W/m² | - |
| 1777511738 | 14.44° C | 97% | 1007.1 hPa | 11.43 mm | - | 0 W/m² | - |
| 1777511434 | 14.44° C | 97% | 1007.2 hPa | 1.78 mm | - | 0 W/m² | - |
| 1777511131 | 14.44° C | 97% | 1006.7 hPa | 3.05 mm | - | 0 W/m² | - |
| 1777510826 | 14.44° C | 97% | 1006.6 hPa | 2.29 mm | - | 0 W/m² | - |
| 1777510524 | 14.44° C | 97% | 1006.6 hPa | 0.51 mm | - | 0 W/m² | - |
| 1777510220 | 14.44° C | 97% | 1006.4 hPa | 0.51 mm | - | 0 W/m² | - |
| 1777509916 | 14.44° C | 97% | 1006.3 hPa | 2.29 mm | - | 0 W/m² | - |
| 1777509612 | 14.44° C | 97% | 1006.3 hPa | 3.05 mm | - | 0 W/m² | - |
* Rain latest hour (hover to see other rain measurements)
** Current wind speed in m/s (hover to see current wind gust speed)